SCP
0 0 0 0 0 0 0 0 0 0 0 0 0 0 0 0 0 0 0 0 0 0 0 0 0 0 0 0 0 0 0 0 0 0 0 0 0 0
0 0 0 0 0 0 0 0 0 0 0 0 0 0 0 0 0 0 0 0 0 0 0 0 0 0 0 0 0 0 0 0 0 0 0 0 0 0
0 0 0 0 0 0 0 0 0 0 0 0 0 0 0 0 0 0 0 0 0 0 0 0 0 0 0 0 0 0 0 0 0 0 0 0 0 0
0 0 0 0 0 0 0 0 0 0 0 0 0 0 0 0 0 0 0 0 0 0 0 0 0 0 0 0 0 0 0 0 0 0 0 0 0 0
0 0 0 0 0 0 0 0 0 0 0 0 0 0 0 0 0 0 0 0 0 0 0 0 0 0 0 0 0 0 0 0 0 0 0 0 0 0
0 0 0 0 0 0 0 0 0 0 0 0 0 0 0 0 0 0 0 0 0 0 0 0 0 0 0 0 0 0 0 0 0 0 0 0 0 0
0 0 0 0 0 0 0 0 0 0 0 0 0 0 0 0 0 0 0 0 0 0 0 0 0 0 0 0 0 0 0 0 0 0 0 0 0 0
0 0 0 0 0 0 0 0 0 0 0 0 0 0 0 0 0 0 0 0 0 0 0 0 0 0 0 0 0 0 0 0 0 0 0 0 0 0
0 0 0 0 0 0 0 0 0 0 0 0 0 0 0 0 0 0 0 0 0 0 0 0 0 0 0 0 0 0 0 0 0 0 0 0 0 0
0 0 0 0 0 0 0 0 0 0 0 0 0 0 0 0 0 0 0 0 0 0 0 0 0 0 0 0 0 0 0 0 0 0 0 0 0 0
0 0 0 0 0 0 0 0 0 0 0 0 0 0 0 0 0 0 0 0 0 0 0 0 0 0 0 0 0 0 0 0 0 0 0 0 0 0
0 0 0 0 0 0 0 0 0 0 0 0 0 0 0 0 0 0 0 0 0 0 0 0 0 0 0 0 0 0 0 0 0 0 0 0 0 0
0 0 0 0 0 0 0 0 0 0 0 0 0 0 0 0 0 0 0 0 0 0 0 0 0 0 0 0 0 0 0 0 0 0 0 0 0 0
0 0 0 0 0 0 0 0 0 0 0 0 0 0 0 0 0 0 0 0 0 0 0 0 0 0 0 0 0 0 0 0 0 0 0 0 0 0
0 0 0 0 0 0 0 0 0 0 0 0 0 0 0 0 0 0 0 0 0 0 0 0 0 0 0 0 0 0 0 0 0 0 0 0 0 0
0 0 0 0 0 0 0 0 0 0 0 0 0 0 0 0 0 0 0 0 0 0 0 0 0 0 0 0 0 0 0 0 0 0 0 0 0 0
0 0 0 0 0 0 0 0 0 0 0 0 0 0 0 0 0 0 0 0 0 0 0 0 0 0 0 0 0 0 0 0 0 0 0 0 0 0
0 0 0 0 0 0 0 0 0 0 0 0 0 0 0 0 0 0 0 0 0 0 0 0 0 0 0 0 0 0 0 0 0 0 0 0 0 0
0 0 0 0 0 0 0 0 0 0 0 0 0 0 0 0 0 0 0 0 0 0 0 0 0 0 0 0 0 0 0 0 0 0 0 0 0 0
0 0 0 0 0 0 0 0 0 0 0 0 0 0 0 0 0 0 0 0 0 0 0 0 0 0 0 0 0 0 0 0 0 0 0 0 0 0
0 0 0 0 0 0 0 0 0 0 0 0 0 0 0 0 0 0 0 0 0 0 0 0 0 0 0 0 0 0 0 0 0 0 0 0 0 0
0 0 0 0 0 0 0 0 0 0 0 0 0 0 0 0 0 0 0 0 0 0 0 0 0 0 0 0 0 0 0 0 0 0 0 0 0 0
0 0 0 0 0 0 0 0 0 0 0 0 0 0 0 0 0 0 0 0 0 0 0 0 0 0 0 0 0 0 0 0 0 0 0 0 0 0
Wind_Speed
4 3 2 1 2 1 2 2 3 1 1 2 2 3 3 2 4 3 3 5 6 5 5 5 6 6 6 7 7 7 7 7 7 7 9 11 12 13
2 3 3 2 2 2 2 2 2 3 1 1 2 2 3 3 4 3 3 5 5 6 5 5 5 6 6 6 6 7 7 7 7 8 8 9 10 11
3 3 3 2 2 2 2 2 2 2 2 2 2 2 3 3 4 3 3 3 3 5 5 5 4 5 5 5 6 6 7 7 8 8 9 9 10 10
4 3 3 2 2 2 2 2 2 2 2 2 2 2 3 3 3 4 3 3 3 5 6 5 5 5 5 6 7 7 7 8 8 9 9 10 10 11
4 4 4 3 3 2 2 2 2 2 2 2 2 2 2 2 3 3 4 3 4 5 6 6 6 7 7 7 8 8 8 9 9 9 10 10 11 11
4 4 4 5 5 4 3 3 3 2 2 2 3 3 3 3 2 3 4 3 4 5 5 6 6 8 9 9 9 10 9 9 10 10 10 11 11 12
4 4 5 7 7 6 4 4 4 3 3 3 3 3 4 3 3 2 4 5 5 3 4 4 5 5 7 8 10 10 10 10 10 10 11 11 12 12
5 5 5 6 7 9 10 9 7 6 5 4 4 5 6 5 4 4 4 4 5 2 3 5 4 7 7 7 9 12 12 12 11 11 11 11 11 12
5 5 4 4 5 4 6 7 8 11 11 6 7 8 7 6 5 5 5 6 7 5 3 7 6 8 8 8 12 13 13 13 13 12 11 11 12 12
6 6 6 6 5 5 5 5 6 7 8 8 9 10 9 8 7 7 7 7 8 6 5 6 7 7 8 7 10 13 13 13 12 12 12 12 12 12
6 6 7 7 8 7 6 6 7 8 8 10 12 12 13 13 9 5 6 6 7 7 5 5 6 6 6 7 8 11 12 12 12 12 12 12 13 11
5 5 8 9 9 8 7 7 8 8 6 5 6 8 9 10 11 10 8 7 7 7 5 5 5 4 6 5 5 6 7 10 12 13 13 13 12 8
5 5 6 9 11 10 9 8 10 8 5 6 7 7 7 7 7 7 8 8 8 8 6 5 5 5 6 6 6 6 7 7 7 8 11 13 13 10
7 6 6 7 9 10 8 9 10 8 5 5 6 7 7 7 7 7 8 10 11 12 10 8 7 8 8 9 9 7 7 7 7 8 8 9 11 13
7 8 8 8 8 7 9 10 7 5 5 6 7 7 7 7 7 6 7 8 10 12 12 12 11 10 9 10 10 10 9 8 7 8 8 8 8 7
7 7 7 8 7 7 6 5 5 5 5 6 7 7 6 6 7 6 6 6 6 8 8 10 11 11 10 12 11 11 10 8 7 7 8 8 8 8
3 3 3 3 3 4 4 5 4 4 5 5 6 7 7 7 7 6 5 5 6 8 9 6 7 8 11 10 10 11 11 10 10 9 7 9 9 9
4 3 4 4 5 5 5 5 4 5 5 5 6 6 6 7 7 7 6 7 8 9 9 8 6 5 5 7 12 12 10 10 9 8 8 9 10 9
4 4 5 5 5 5 5 5 5 5 4 5 6 6 6 6 7 7 7 7 8 9 9 8 7 7 9 11 8 11 10 9 9 8 8 9 10 10
4 5 5 5 5 5 5 5 6 5 5 5 6 6 6 6 7 8 8 9 9 9 9 8 8 8 9 11 10 8 11 11 9 10 9 8 9 10
4 5 5 5 5 5 5 5 6 6 6 5 6 7 6 6 7 7 8 10 9 9 10 10 9 9 8 7 8 10 9 11 12 9 9 8 8 8
4 4 5 5 5 5 5 5 5 5 6 6 6 7 6 7 8 9 8 8 8 9 10 10 9 7 6 8 11 12 12 10 10 15 16 13 8 7
4 5 5 5 5 5 5 5 7 6 6 6 7 7 7 7 7 7 8 8 9 9 9 9 8 7 8 8 10 10 13 12 8 8 9 12 17 19
Wind_Direction
114 113 104 93 92 102 124 140 141 137 298 313 313 325 337 333 341 343 335 334 337 331 324 319 316 314 308 299 292 289 283 273 267 264 263 261 255 252
128 122 115 116 103 103 117 124 133 149 197 263 277 302 318 332 350 344 328 326 326 324 321 319 316 312 306 299 294 289 285 278 270 264 262 262 259 255
145 144 142 141 130 131 131 131 135 147 184 263 267 287 300 318 328 330 323 318 314 314 315 314 314 312 308 303 297 291 287 281 273 265 261 260 259 255
168 161 168 160 154 157 154 158 167 180 188 239 274 286 282 294 302 306 312 315 307 303 301 302 306 307 302 300 298 291 285 281 275 268 263 260 257 257
182 185 189 175 189 191 189 190 193 190 194 221 263 271 278 290 302 298 298 297 300 296 288 288 294 299 297 293 292 288 283 277 273 269 263 259 257 256
198 202 203 201 209 207 208 210 204 202 203 227 259 271 271 276 271 284 298 294 298 297 286 282 282 288 288 286 285 282 279 275 271 268 264 260 257 256
213 218 223 222 222 216 214 211 202 212 222 236 258 268 273 273 271 268 284 297 289 270 283 283 285 287 286 280 276 273 274 274 271 267 264 260 256 253
220 230 238 240 240 235 234 225 208 213 226 231 248 257 268 265 264 261 272 293 293 263 270 287 281 280 279 274 269 269 271 271 269 266 264 261 257 253
220 230 243 243 237 243 251 249 236 231 223 222 246 254 260 256 253 265 259 259 267 272 268 283 278 276 277 272 265 266 267 266 266 264 262 262 260 257
225 227 236 251 247 238 249 258 257 250 237 232 240 252 256 258 247 257 271 274 271 261 231 267 278 276 281 277 266 260 262 263 263 262 261 260 261 260
236 233 233 246 250 240 239 254 269 271 255 239 239 251 259 261 254 255 256 257 275 277 217 237 269 277 277 275 269 256 256 259 262 262 261 260 261 262
246 242 236 239 249 239 230 240 257 268 274 278 267 265 266 267 252 236 240 250 263 275 240 218 258 271 281 265 265 267 264 261 259 258 258 258 258 257
246 250 245 239 244 244 231 232 242 255 272 276 283 285 282 274 266 244 230 232 246 256 249 219 256 256 258 277 276 270 266 269 267 262 255 252 250 240
241 248 250 250 249 251 242 239 248 255 261 270 276 278 279 279 277 268 249 239 240 250 260 244 252 258 266 274 279 276 267 262 262 266 266 260 252 242
241 246 252 259 261 258 250 249 249 242 245 256 264 269 270 274 280 281 274 259 254 253 255 249 247 256 256 264 272 275 280 276 259 256 259 258 259 254
245 255 258 259 253 257 264 255 240 235 237 253 264 271 277 278 278 278 280 283 280 277 261 248 245 248 256 260 265 271 269 268 264 257 260 264 261 252
211 231 239 244 253 257 261 262 255 244 244 252 260 271 277 280 282 281 272 274 270 280 287 281 256 248 250 257 264 264 267 266 264 266 262 265 263 255
184 226 238 243 251 259 266 269 262 254 254 255 258 262 271 278 284 284 274 272 274 277 278 283 286 281 268 253 233 254 264 265 267 262 256 262 269 264
200 232 241 245 250 255 257 259 264 265 258 259 262 264 269 275 280 282 282 280 278 277 278 279 276 272 278 284 265 224 248 267 270 267 258 253 263 268
223 239 246 250 251 255 259 262 266 270 265 263 267 270 271 275 278 280 280 281 282 284 284 281 272 265 264 278 286 277 239 250 262 266 267 262 261 265
230 241 249 254 257 258 260 262 263 266 268 267 268 269 271 272 274 278 280 281 279 281 283 284 280 272 272 272 272 272 268 238 237 254 267 268 269 267
243 247 250 252 255 258 258 258 262 265 269 267 267 267 266 265 271 275 279 281 281 280 283 286 289 284 267 262 269 277 282 278 253 242 242 243 254 263
244 251 254 256 255 255 256 259 261 264 263 265 267 268 268 269 270 271 273 274 277 282 286 288 289 280 271 269 273 277 281 284 281 275 264 244 239 249